Location: Laura�t
(43.9341°N, 0.2497°E)
Time: 10:15:09
(UTC+00:00)

Cosmos 2084 Rocket - Pass Details

Date: 03 March 2021
Orbit: 527 x 653 km, 62.8° (Epoch: 18 April)

Event Time Altitude Azimuth Distance (km) Brightness Sun altitude
Rises 18:23:19 0° 326° (NW) 2,801 7.4 -6.8°
Reaches altitude 10° 18:25:36 10° 333° (NNW) 1,920 6.4 -7.2°
Maximum altitude 18:29:47 45° 47° (NE) 830 3.9 -7.9°
Drops below altitude 10° 18:34:06 10° 120° (ESE) 1,985 5.6 -8.7°
Enters shadow 18:34:52 - 123° (ESE) 2,274 6.0 -8.8°
